E1646 Weather Reports


time (UTC)temp
F
wind
direction
speed
knots
gust
knots
rain 1hr
in
rain 24hr
in
rain mn
in
humidity
%
barometer
mb
20260510203007 63 314 2.6 9.6 0.00 0.06 0.00 73 1013.3
20260510201600 65 58 3.5 13.9 0.00 0.06 0.00 62 1013.2
20260510200116 66 47 3.5 13.0 0.00 0.15 0.00 63 1013.3
20260510194557 66 293 0.9 9.6 0.00 0.15 0.00 69 1013.3
20260510193051 67 293 0.9 8.7 0.00 0.15 0.00 72 1013.1
20260510191546 65 257 1.7 5.2 0.00 0.15 0.00 76 1013.4
20260510190032 62 103 0.9 2.6 0.00 0.21 0.00 77 1013.3
20260510184526 61 133 0.9 5.2 0.00 0.21 0.00 76 1013.5
20260510183038 62 226 1.7 6.1 0.00 0.21 0.00 78 1013.5
20260510181525 63 164 0.9 3.5 0.00 0.21 0.00 78 1013.5
20260510180010 64 232 0.0 2.6 0.00 0.25 0.00 76 1013.3
20260510174501 65 3 0.0 3.5 0.00 0.25 0.00 71 1013.4
20260510173105 66 358 2.6 7.0 0.00 0.25 0.00 66 1013.3
20260510171554 67 268 1.7 6.1 0.00 0.25 0.00 66 1013.1
20260510170045 67 353 1.7 9.6 0.00 0.25 0.00 68 1013.5
20260510164545 66 181 1.7 7.0 0.00 0.25 0.00 69 1013.3
20260510163033 64 356 2.6 7.8 0.00 0.25 0.00 72 1013.4
20260510161527 63 318 0.0 7.0 0.00 0.25 0.00 74 1013.5
20260510160025 64 316 2.6 7.0 0.00 0.27 0.00 73 1013.5
20260510154515 63 298 1.7 9.6 0.00 0.27 0.00 74 1013.7
20260510153009 64 297 2.6 7.8 0.00 0.27 0.00 72 1013.6
20260510151504 63 226 0.0 4.3 0.00 0.27 0.00 77 1013.5
20260510150057 62 281 0.9 7.0 0.00 0.27 0.00 77 1013.5
20260510144552 61 259 2.6 6.1 0.00 0.27 0.00 78 1013.5
20260510143045 59 137 0.9 7.8 0.00 0.27 0.00 78 1013.5
20260510141539 59 118 1.7 6.1 0.00 0.27 0.00 76 1013.6
20260510140033 58 145 2.6 7.0 0.00 0.27 0.00 71 1013.2
20260510134526 57 205 2.6 7.8 0.00 0.27 0.00 65 1013.6
20260510133035 57 158 0.9 5.2 0.00 0.27 0.00 56 1013.7
20260510131515 56 243 0.0 2.6 0.00 0.27 0.00 41 1013.6
20260510130010 53 97 0.0 2.6 0.00 0.27 0.00 1 1013.6
20260510124506 50 156 0.0 1.7 0.00 0.27 0.00 1 1013.4
20260510123110 49 138 0.0 1.7 0.00 0.27 0.00 1 1013.3
20260510121552 49 245 0.0 0.9 0.00 0.27 0.00 1 1013.1
20260510120046 48 153 0.0 1.7 0.00 0.28 0.00 1 1012.9
20260510114540 48 113 0.0 2.6 0.00 0.28 0.00 1 1012.8
20260510111528 47 155 1.7 4.3 0.00 0.28 0.00 1 1012.3
20260510110026 47 127 0.0 4.3 0.00 0.28 0.00 1 1012.2
20260510104515 0 0.0 0.0 0.00 0.28 0.00 1011.9
20260510103009 0 0.0 0.0 0.00 0.28 0.00 1011.5
20260510101505 0 0.0 0.0 0.00 0.28 0.00 1011.8
20260510100101 0 0.0 0.0 0.00 0.28 0.00 1011.5
20260510094555 0 0.0 0.0 0.00 0.28 0.00 1011.3
20260510093049 0 0.0 0.0 0.00 0.28 0.00 1011.2
20260510091548 0 0.0 0.0 0.00 0.28 0.00 1011.3
20260510090040 0 0.0 0.0 0.00 0.28 0.00 1011.4
20260510084534 0 0.0 0.0 0.00 0.28 0.00 1011.7
20260510083027 0 0.0 0.0 0.00 0.28 0.00 1012.1
20260510081521 0 0.0 0.0 0.00 0.28 0.00 1012.0
20260510080015 0 0.0 0.0 0.00 0.28 0.00 1012.2
20260510074510 44 153 0.9 1.7 0.00 0.28 0.00 1 1012.4
20260510073006 44 212 0.0 7.0 0.00 0.28 0.00 1 1012.5
20260510071607 45 1 0.9 4.3 0.00 0.28 0.00 1 1012.6
20260510070053 44 288 0.0 2.6 0.00 0.30 0.00 1 1012.0
20260510064554 45 149 0.0 4.3 0.00 0.30 0.00 1 1011.7
20260510063045 45 146 0.0 3.5 0.00 0.30 0.00 1 1011.8
20260510061535 45 96 0.0 2.6 0.00 0.30 0.00 1 1012.0
20260510060029 45 229 0.0 5.2 0.00 0.30 0.00 1 1012.2
20260510054524 45 334 0.0 1.7 0.00 0.30 0.00 1 1012.0
20260510053017 45 134 0.0 6.1 0.00 0.30 0.00 1 1011.4
20260510051511 45 75 1.7 7.0 0.00 0.30 0.00 1 1011.3
20260510050004 45 172 1.7 5.2 0.00 0.30 0.00 1 1011.3
20260510044559 45 142 1.7 7.0 0.00 0.30 0.00 1 1011.4
20260510043106 45 240 1.7 5.2 0.00 0.30 0.00 1 1011.5
20260510041549 45 108 2.6 5.2 0.00 0.30 0.00 1 1011.7
20260510040043 45 117 2.6 6.1 0.00 0.30 0.30 1 1011.5
20260510034537 45 129 2.6 7.8 0.00 0.30 0.30 1 1011.2
20260510033030 45 137 2.6 7.8 0.00 0.30 0.30 1 1011.2
20260510031522 45 129 1.7 9.6 0.00 0.30 0.30 1 1011.1
20260510030016 46 115 3.5 6.1 0.00 0.30 0.30 1 1011.3
20260510024512 46 102 1.7 7.0 0.00 0.30 0.30 1 1011.4
20260510023005 46 134 3.5 8.7 0.00 0.30 0.30 1 1011.4
20260510021602 46 148 2.6 7.0 0.00 0.30 0.30 1 1011.1
20260510020053 46 150 1.7 5.2 0.00 0.30 0.30 1 1011.3
20260510014546 46 186 3.5 8.7 0.00 0.30 0.30 1 1011.0
20260510013040 46 115 2.6 7.8 0.00 0.30 0.30 1 1011.2
20260510011534 46 208 2.6 6.1 0.00 0.30 0.30 1 1010.9
20260510010028 46 153 2.6 6.1 0.00 0.30 0.30 1 1010.8
20260510004522 46 142 3.5 9.6 0.00 0.30 0.30 1 1010.6
20260510003015 46 200 4.3 8.7 0.00 0.30 0.30 1 1010.4
20260510001513 46 110 3.5 10.4 0.00 0.30 0.30 1 1010.2
20260510000015 47 163 2.6 10.4 0.00 0.30 0.30 1 1010.3
20260509234504 47 145 2.6 9.6 0.00 0.30 0.30 1 1010.2
20260509233058 48 128 4.3 9.6 0.00 0.30 0.30 1 1010.1
20260509231557 47 150 3.5 7.8 0.00 0.30 0.30 1 1010.2
20260509230048 47 170 2.6 8.7 0.00 0.30 0.30 1 1010.3
20260509224553 47 111 2.6 11.3 0.00 0.30 0.30 1 1010.2
20260509223038 47 152 3.5 8.7 0.00 0.30 0.30 1 1010.3
20260509221536 48 120 2.6 7.8 0.00 0.30 0.30 1 1010.2
20260509220029 48 142 1.7 5.2 0.01 0.30 0.30 1 1010.3
20260509214522 48 141 1.7 9.6 0.01 0.30 0.30 1 1010.6
20260509213018 48 102 3.5 7.0 0.03 0.30 0.30 1 1010.9
20260509211610 48 165 0.9 7.0 0.05 0.30 0.30 1 1010.6
20260509210010 48 141 1.7 5.2 0.05 0.28 0.28 1 1010.8
20260509204601 48 134 2.6 7.8 0.08 0.28 0.28 1 1011.0